Tulsa, OK

8:39 AM CDT on May 29, 2017 (GMT -0500)
Tulsa International

Weather History for KTUL - September, 2013

Change the Weather History Date:

Saturday, September 14, 2013

  Actual Average Record
Temperature  
Mean Temperature 74 °F 74 °F  
Max Temperature 86 °F 85 °F 103 °F (1965)
Min Temperature 61 °F 63 °F 46 °F (1961)
Degree Days  
Heating Degree Days 0 0  
Month to date heating degree days 0 0  
Since 1 July heating degree days 0 0  
Cooling Degree Days 9 9  
Month to date cooling degree days 229 161  
Year to date cooling degree days 1858 1862  
Growing Degree Days 24 (Base 50)    
Moisture  
Dew Point 55 °F    
Average Humidity 57    
Maximum Humidity 73    
Minimum Humidity 40    
Precipitation  
Precipitation 0.00 in 0.15 in 2.15 in (1957)
Month to date precipitation 0.00 1.97  
Year to date precipitation 23.38 29.45  
Sea Level Pressure  
Sea Level Pressure 29.97 in    
Wind  
Wind Speed 8 mph (SE)    
Max Wind Speed 15 mph    
Max Gust Speed 20 mph    
Visibility 10 miles    
Events      
T = Trace of Precipitation, MM = Missing Value Source: NWS Daily Summary

Daily Weather History Graph

Daily Weather History Graph

Search for Another Location

Airport or City:

Trip Planner

Search our weather history database for the weather conditions in past years. The results will help you decide how hot, cold, wet, or windy it might be!

Date:

Astronomy

Sep. 14, 2013 Rise Set
Actual Time 7:05 AM CDT 7:31 PM CDT
Civil Twilight 6:39 AM CDT 7:57 PM CDT
Nautical Twilight 6:09 AM CDT 8:27 PM CDT
Astronomical Twilight 5:38 AM CDT 8:58 PM CDT
Moon 4:07 PM CDT (9/14) 1:45 AM CDT (9/14)
Length of Visible Light 13h 18m
Length of Day
12h 26m
Waxing Gibbous, 72% of the Moon is Illuminated
Sep 14
Waxing Gibbous
Sep 19
Full
Sep 26
Last Quarter
Oct 4
New
Oct 11
First Quarter

Hourly Weather History & Observations

Time (CDT) Temp. Heat Index Dew Point Humidity Pressure Visibility Wind Dir Wind Speed Gust Speed Precip Events Conditions
12:53 AM 68.0 °F - 52.0 °F 56% 29.99 in 10.0 mi ENE 5.8 mph - N/A   Scattered Clouds
1:53 AM 66.9 °F - 52.0 °F 59% 29.99 in 10.0 mi NE 4.6 mph - N/A   Partly Cloudy
2:53 AM 64.9 °F - 52.0 °F 63% 29.99 in 10.0 mi ENE 4.6 mph - N/A   Partly Cloudy
3:53 AM 64.0 °F - 52.0 °F 65% 29.98 in 10.0 mi ENE 6.9 mph - N/A   Partly Cloudy
4:53 AM 64.0 °F - 53.1 °F 67% 29.98 in 10.0 mi ENE 6.9 mph - N/A   Partly Cloudy
5:53 AM 62.1 °F - 53.1 °F 72% 29.99 in 10.0 mi ENE 4.6 mph - N/A   Partly Cloudy
6:53 AM 63.0 °F - 53.1 °F 70% 30.00 in 10.0 mi East 5.8 mph - N/A   Scattered Clouds
7:53 AM 64.0 °F - 55.0 °F 73% 30.02 in 10.0 mi ESE 4.6 mph - N/A   Scattered Clouds
8:53 AM 68.0 °F - 55.0 °F 63% 30.03 in 10.0 mi ESE 8.1 mph - N/A   Scattered Clouds
9:53 AM 72.0 °F - 55.0 °F 55% 30.04 in 10.0 mi SE 9.2 mph - N/A   Partly Cloudy
10:53 AM 77.0 °F - 54.0 °F 45% 30.04 in 10.0 mi SSE 10.4 mph - N/A   Scattered Clouds
11:53 AM 78.1 °F - 55.0 °F 45% 30.02 in 10.0 mi SE 10.4 mph 19.6 mph N/A   Mostly Cloudy
12:53 PM 81.0 °F 80.7 °F 55.0 °F 41% 30.01 in 10.0 mi SE 10.4 mph - N/A   Mostly Cloudy
1:53 PM 82.9 °F 82.4 °F 57.0 °F 41% 29.98 in 10.0 mi SSE 8.1 mph 17.3 mph N/A   Mostly Cloudy
2:53 PM 84.0 °F 83.3 °F 57.0 °F 40% 29.96 in 10.0 mi SSE 9.2 mph - N/A   Mostly Cloudy
3:53 PM 84.0 °F 83.3 °F 57.0 °F 40% 29.94 in 10.0 mi ESE 6.9 mph - N/A   Mostly Cloudy
4:53 PM 84.9 °F 84.2 °F 57.9 °F 40% 29.92 in 10.0 mi South 9.2 mph - N/A   Mostly Cloudy
5:53 PM 84.9 °F 84.2 °F 57.9 °F 40% 29.91 in 10.0 mi SSE 8.1 mph - N/A   Mostly Cloudy
6:53 PM 82.9 °F 82.8 °F 59.0 °F 44% 29.92 in 10.0 mi SE 8.1 mph - N/A   Mostly Cloudy
7:53 PM 82.0 °F 82.0 °F 57.9 °F 44% 29.91 in 10.0 mi South 8.1 mph - N/A   Mostly Cloudy
8:53 PM 80.1 °F 80.7 °F 59.0 °F 48% 29.92 in 10.0 mi SSE 8.1 mph - N/A   Scattered Clouds
9:53 PM 78.1 °F - 57.9 °F 50% 29.93 in 10.0 mi SSE 6.9 mph - N/A   Scattered Clouds
10:53 PM 77.0 °F - 57.0 °F 50% 29.93 in 10.0 mi SSE 11.5 mph - N/A   Scattered Clouds
11:53 PM 75.0 °F - 54.0 °F 48% 29.95 in 10.0 mi SSE 10.4 mph - N/A   Clear